Time,TemperatureF,DewpointF,PressureIn,WindDirection,WindDirectionDegrees,WindSpeedMPH,WindSpeedGustMPH,Humidity,HourlyPrecipIn,Conditions,Clouds,dailyrainin,SolarRadiationWatts/m^2,SoftwareType,DateUTC
2013-04-07 00:03:00,65.0,57.0,-100.00,NNE,25,2.0,-999.0,77,0.00,,,-99.99,0.000000,,2013-04-07 04:03:00,
2013-04-07 00:14:00,64.0,57.0,-100.00,NNE,24,2.0,-999.0,79,0.00,,,-99.99,0.000000,,2013-04-07 04:14:00,
2013-04-07 00:23:00,64.0,57.0,-100.00,NNE,24,2.0,-999.0,79,0.00,,,-99.99,0.000000,,2013-04-07 04:23:00,
2013-04-07 00:32:00,63.0,57.0,-100.00,NNE,16,2.0,-999.0,81,0.00,,,-99.99,0.000000,,2013-04-07 04:32:00,
2013-04-07 00:43:00,62.0,57.0,-100.00,North,10,2.0,-999.0,83,0.00,,,-99.99,0.000000,,2013-04-07 04:43:00,
2013-04-07 00:53:00,62.0,57.0,-100.00,North,10,2.0,-999.0,83,0.00,,,-99.99,0.000000,,2013-04-07 04:53:00,
2013-04-07 01:02:00,61.0,57.0,-100.00,North,357,2.0,-999.0,84,0.00,,,-99.99,0.000000,,2013-04-07 05:02:00,
2013-04-07 01:12:00,61.0,57.0,-100.00,NNE,33,2.0,-999.0,86,0.00,,,-99.99,0.000000,,2013-04-07 05:12:00,
2013-04-07 01:23:00,61.0,57.0,-100.00,NNE,33,2.0,-999.0,86,0.00,,,-99.99,0.000000,,2013-04-07 05:23:00,
2013-04-07 01:33:00,61.0,57.0,-100.00,NE,54,3.0,-999.0,87,0.00,,,-99.99,0.000000,,2013-04-07 05:33:00,
2013-04-07 01:43:00,61.0,57.0,-100.00,East,80,2.0,-999.0,88,0.00,,,-99.99,0.000000,,2013-04-07 05:43:00,
2013-04-07 01:52:00,61.0,57.0,-100.00,East,80,2.0,-999.0,88,0.00,,,-99.99,0.000000,,2013-04-07 05:52:00,
2013-04-07 02:02:00,60.0,57.0,-100.00,East,82,2.0,-999.0,88,0.00,,,-99.99,0.000000,,2013-04-07 06:02:00,
2013-04-07 02:12:00,60.0,57.0,-100.00,East,80,2.0,-999.0,88,0.00,,,-99.99,0.000000,,2013-04-07 06:12:00,
2013-04-07 02:22:00,60.0,57.0,-100.00,East,80,2.0,-999.0,88,0.00,,,-99.99,0.000000,,2013-04-07 06:22:00,
2013-04-07 02:32:00,60.0,57.0,-100.00,ENE,70,2.0,-999.0,89,0.00,,,-99.99,0.000000,,2013-04-07 06:32:00,
2013-04-07 02:43:00,60.0,57.0,-100.00,NE,34,2.0,-999.0,90,0.00,,,-99.99,0.000000,,2013-04-07 06:43:00,
2013-04-07 02:53:00,60.0,57.0,-100.00,NE,34,2.0,-999.0,90,0.00,,,-99.99,0.000000,,2013-04-07 06:53:00,
2013-04-07 03:02:00,59.0,57.0,-100.00,North,5,2.0,-999.0,91,0.00,,,-99.99,0.000000,,2013-04-07 07:02:00,
2013-04-07 03:12:00,59.0,56.0,-100.00,ENE,62,1.0,-999.0,92,0.00,,,-99.99,0.000000,,2013-04-07 07:12:00,
2013-04-07 03:22:00,59.0,56.0,-100.00,ENE,62,1.0,-999.0,92,0.00,,,-99.99,0.000000,,2013-04-07 07:22:00,
2013-04-07 03:32:00,58.0,56.0,-100.00,East,94,1.0,-999.0,93,0.00,,,-99.99,0.000000,,2013-04-07 07:32:00,
2013-04-07 03:42:00,58.0,57.0,-100.00,ENE,59,2.0,-999.0,94,0.00,,,-99.99,0.000000,,2013-04-07 07:42:00,
2013-04-07 03:52:00,58.0,57.0,-100.00,ENE,59,2.0,-999.0,94,0.00,,,-99.99,0.000000,,2013-04-07 07:52:00,
2013-04-07 04:02:00,58.0,57.0,-100.00,East,87,2.0,-999.0,94,0.00,,,-99.99,0.000000,,2013-04-07 08:02:00,
2013-04-07 04:12:00,59.0,57.0,-100.00,East,98,2.0,-999.0,94,0.00,,,-99.99,0.000000,,2013-04-07 08:12:00,
2013-04-07 04:22:00,59.0,57.0,-100.00,East,98,2.0,-999.0,94,0.00,,,-99.99,0.000000,,2013-04-07 08:22:00,
2013-04-07 04:32:00,59.0,57.0,-100.00,East,81,2.0,-999.0,94,0.00,,,-99.99,0.000000,,2013-04-07 08:32:00,
2013-04-07 04:42:00,59.0,57.0,-100.00,ENE,70,2.0,-999.0,93,0.00,,,-99.99,0.000000,,2013-04-07 08:42:00,
2013-04-07 04:53:00,59.0,57.0,-100.00,ENE,70,2.0,-999.0,93,0.00,,,-99.99,0.000000,,2013-04-07 08:53:00,
2013-04-07 05:02:00,59.0,57.0,-100.00,East,79,2.0,-999.0,94,0.00,,,-99.99,0.000000,,2013-04-07 09:02:00,
2013-04-07 05:12:00,59.0,57.0,-100.00,ENE,72,2.0,-999.0,94,0.00,,,-99.99,0.000000,,2013-04-07 09:12:00,
2013-04-07 05:22:00,59.0,57.0,-100.00,ENE,72,2.0,-999.0,94,0.00,,,-99.99,0.000000,,2013-04-07 09:22:00,
2013-04-07 05:33:00,59.0,57.0,-100.00,NE,50,2.0,-999.0,94,0.00,,,-99.99,0.000000,,2013-04-07 09:33:00,
2013-04-07 05:43:00,59.0,57.0,-100.00,ENE,58,2.0,-999.0,94,0.00,,,-99.99,0.000000,,2013-04-07 09:43:00,
2013-04-07 05:54:00,59.0,57.0,-100.00,ENE,58,2.0,-999.0,94,0.00,,,-99.99,0.000000,,2013-04-07 09:54:00,
2013-04-07 06:04:00,59.0,57.0,-100.00,NE,41,2.0,-999.0,94,0.00,,,-99.99,0.000000,,2013-04-07 10:04:00,
2013-04-07 06:14:00,59.0,57.0,-100.00,NNE,29,2.0,-999.0,95,0.00,,,-99.99,0.000000,,2013-04-07 10:14:00,
2013-04-07 06:23:00,59.0,57.0,-100.00,NNE,29,2.0,-999.0,95,0.00,,,-99.99,0.000000,,2013-04-07 10:23:00,
2013-04-07 06:33:00,59.0,57.0,-100.00,NE,38,2.0,-999.0,94,0.00,,,-99.99,0.000000,,2013-04-07 10:33:00,
2013-04-07 06:43:00,58.0,57.0,-100.00,NE,38,2.0,-999.0,95,0.00,,,-99.99,0.000000,,2013-04-07 10:43:00,
2013-04-07 06:54:00,58.0,57.0,-100.00,NE,38,2.0,-999.0,95,0.00,,,-99.99,0.000000,,2013-04-07 10:54:00,
2013-04-07 07:03:00,58.0,57.0,-100.00,ENE,66,2.0,-999.0,95,0.00,,,-99.99,0.000000,,2013-04-07 11:03:00,
2013-04-07 07:12:00,58.0,57.0,-100.00,ENE,67,2.0,-999.0,95,0.00,,,-99.99,0.100000,,2013-04-07 11:12:00,
2013-04-07 07:22:00,58.0,57.0,-100.00,ENE,67,2.0,-999.0,95,0.00,,,-99.99,0.100000,,2013-04-07 11:22:00,
2013-04-07 07:33:00,58.0,57.0,-100.00,NE,53,2.0,-999.0,95,0.00,,,-99.99,1.500000,,2013-04-07 11:33:00,
2013-04-07 07:43:00,58.0,57.0,-100.00,ENE,60,2.0,-999.0,95,0.00,,,-99.99,9.000000,,2013-04-07 11:43:00,
2013-04-07 07:53:00,58.0,57.0,-100.00,ENE,60,2.0,-999.0,95,0.00,,,-99.99,9.000000,,2013-04-07 11:53:00,
2013-04-07 08:02:00,58.0,57.0,-100.00,ENE,69,2.0,-999.0,95,0.00,,,-99.99,14.400000,,2013-04-07 12:02:00,
2013-04-07 08:12:00,58.0,57.0,-100.00,NE,56,2.0,-999.0,96,0.00,,,-99.99,22.299999,,2013-04-07 12:12:00,
2013-04-07 08:23:00,58.0,57.0,-100.00,NE,56,2.0,-999.0,96,0.00,,,-99.99,22.299999,,2013-04-07 12:23:00,
2013-04-07 08:34:00,59.0,58.0,-100.00,ENE,60,2.0,-999.0,95,0.00,,,-99.99,41.299999,,2013-04-07 12:34:00,
2013-04-07 08:43:00,60.0,59.0,-100.00,NE,44,2.0,-999.0,94,0.00,,,-99.99,46.000000,,2013-04-07 12:43:00,
2013-04-07 08:54:00,60.0,59.0,-100.00,NE,44,2.0,-999.0,94,0.00,,,-99.99,46.000000,,2013-04-07 12:54:00,
2013-04-07 09:04:00,61.0,59.0,-100.00,NE,53,4.0,-999.0,91,0.00,,,-99.99,52.400002,,2013-04-07 13:04:00,
2013-04-07 09:13:00,63.0,60.0,-100.00,NE,48,3.0,-999.0,89,0.00,,,-99.99,57.900002,,2013-04-07 13:13:00,
2013-04-07 09:22:00,63.0,60.0,-100.00,NE,48,3.0,-999.0,89,0.00,,,-99.99,57.900002,,2013-04-07 13:22:00,
2013-04-07 09:32:00,65.0,60.0,-100.00,ENE,65,3.0,-999.0,86,0.00,,,-99.99,76.199997,,2013-04-07 13:32:00,
2013-04-07 09:42:00,66.0,61.0,-100.00,ENE,77,3.0,-999.0,83,0.00,,,-99.99,124.400002,,2013-04-07 13:42:00,
2013-04-07 09:53:00,66.0,61.0,-100.00,ENE,77,3.0,-999.0,83,0.00,,,-99.99,124.400002,,2013-04-07 13:53:00,
2013-04-07 10:02:00,68.0,62.0,-100.00,East,86,2.0,-999.0,79,0.00,,,-99.99,395.899994,,2013-04-07 14:02:00,
2013-04-07 10:12:00,70.0,62.0,-100.00,East,87,3.0,-999.0,74,0.00,,,-99.99,536.799988,,2013-04-07 14:12:00,
2013-04-07 10:23:00,70.0,62.0,-100.00,East,87,3.0,-999.0,74,0.00,,,-99.99,536.799988,,2013-04-07 14:23:00,
2013-04-07 10:33:00,72.0,62.0,-100.00,East,99,3.0,-999.0,70,0.00,,,-99.99,507.200012,,2013-04-07 14:33:00,
2013-04-07 10:43:00,73.0,62.0,-100.00,ESE,103,3.0,-999.0,68,0.00,,,-99.99,553.000000,,2013-04-07 14:43:00,
2013-04-07 10:54:00,73.0,62.0,-100.00,ESE,103,3.0,-999.0,68,0.00,,,-99.99,553.000000,,2013-04-07 14:54:00,
2013-04-07 11:03:00,73.0,61.0,-100.00,ESE,121,4.0,-999.0,65,0.00,,,-99.99,401.299988,,2013-04-07 15:03:00,
2013-04-07 11:13:00,75.0,61.0,-100.00,East,99,3.0,-999.0,62,0.00,,,-99.99,721.000000,,2013-04-07 15:13:00,
2013-04-07 11:22:00,75.0,61.0,-100.00,East,99,3.0,-999.0,62,0.00,,,-99.99,721.000000,,2013-04-07 15:22:00,
2013-04-07 11:34:00,76.0,61.0,-100.00,ESE,102,3.0,-999.0,58,0.00,,,-99.99,699.200012,,2013-04-07 15:34:00,
2013-04-07 11:44:00,78.0,61.0,-100.00,SE,143,3.0,-999.0,56,0.00,,,-99.99,830.000000,,2013-04-07 15:44:00,
2013-04-07 11:55:00,78.0,61.0,-100.00,SE,143,3.0,-999.0,56,0.00,,,-99.99,830.000000,,2013-04-07 15:55:00,
2013-04-07 12:04:00,77.0,60.0,-100.00,ESE,108,3.0,-999.0,55,0.00,,,-99.99,584.599976,,2013-04-07 16:04:00,
2013-04-07 12:14:00,77.0,59.0,-100.00,East,94,3.0,-999.0,54,0.00,,,-99.99,676.700012,,2013-04-07 16:14:00,
2013-04-07 12:25:00,77.0,59.0,-100.00,East,94,3.0,-999.0,54,0.00,,,-99.99,676.700012,,2013-04-07 16:25:00,
2013-04-07 12:33:00,78.0,59.0,-100.00,East,92,3.0,-999.0,52,0.00,,,-99.99,994.000000,,2013-04-07 16:33:00,
2013-04-07 12:43:00,78.0,59.0,-100.00,East,93,3.0,-999.0,51,0.00,,,-99.99,751.000000,,2013-04-07 16:43:00,
2013-04-07 12:54:00,78.0,59.0,-100.00,East,93,3.0,-999.0,51,0.00,,,-99.99,751.000000,,2013-04-07 16:54:00,
2013-04-07 13:04:00,79.0,58.0,-100.00,East,87,3.0,-999.0,49,0.00,,,-99.99,736.000000,,2013-04-07 17:04:00,
2013-04-07 13:13:00,78.0,58.0,-100.00,ESE,119,3.0,-999.0,50,0.00,,,-99.99,490.500000,,2013-04-07 17:13:00,
2013-04-07 13:23:00,78.0,58.0,-100.00,ESE,119,3.0,-999.0,50,0.00,,,-99.99,490.500000,,2013-04-07 17:23:00,
2013-04-07 13:33:00,78.0,58.0,-100.00,East,89,2.0,-999.0,49,0.00,,,-99.99,475.299988,,2013-04-07 17:33:00,
2013-04-07 13:43:00,80.0,57.0,-100.00,ESE,109,3.0,-999.0,45,0.00,,,-99.99,1076.000000,,2013-04-07 17:43:00,
2013-04-07 13:54:00,80.0,57.0,-100.00,ESE,109,3.0,-999.0,45,0.00,,,-99.99,1076.000000,,2013-04-07 17:54:00,
2013-04-07 14:02:00,81.0,56.0,-100.00,ESE,117,4.0,-999.0,42,0.00,,,-99.99,1053.000000,,2013-04-07 18:02:00,
2013-04-07 14:13:00,80.0,56.0,-100.00,ESE,117,4.0,-999.0,43,0.00,,,-99.99,648.400024,,2013-04-07 18:13:00,
2013-04-07 14:23:00,80.0,56.0,-100.00,ESE,117,4.0,-999.0,43,0.00,,,-99.99,648.400024,,2013-04-07 18:23:00,
2013-04-07 14:33:00,80.0,55.0,-100.00,SE,141,3.0,-999.0,40,0.00,,,-99.99,855.000000,,2013-04-07 18:33:00,
2013-04-07 14:43:00,81.0,55.0,-100.00,ESE,121,3.0,-999.0,40,0.00,,,-99.99,917.000000,,2013-04-07 18:43:00,
2013-04-07 14:53:00,81.0,55.0,-100.00,ESE,121,3.0,-999.0,40,0.00,,,-99.99,917.000000,,2013-04-07 18:53:00,
2013-04-07 15:03:00,83.0,55.0,-100.00,ESE,122,4.0,-999.0,38,0.00,,,-99.99,859.000000,,2013-04-07 19:03:00,
2013-04-07 15:13:00,79.0,55.0,-100.00,East,91,3.0,-999.0,42,0.00,,,-99.99,277.700012,,2013-04-07 19:13:00,
2013-04-07 15:22:00,79.0,55.0,-100.00,East,91,3.0,-999.0,42,0.00,,,-99.99,277.700012,,2013-04-07 19:22:00,
2013-04-07 15:32:00,80.0,56.0,-100.00,ESE,108,2.0,-999.0,43,0.00,,,-99.99,625.299988,,2013-04-07 19:32:00,
2013-04-07 15:43:00,81.0,55.0,-100.00,East,85,3.0,-999.0,41,0.00,,,-99.99,416.100006,,2013-04-07 19:43:00,
2013-04-07 15:55:00,81.0,55.0,-100.00,East,85,3.0,-999.0,41,0.00,,,-99.99,416.100006,,2013-04-07 19:55:00,
2013-04-07 16:03:00,80.0,55.0,-100.00,ENE,59,4.0,-999.0,42,0.00,,,-99.99,416.200012,,2013-04-07 20:03:00,
2013-04-07 16:13:00,80.0,55.0,-100.00,East,91,3.0,-999.0,42,0.00,,,-99.99,379.399994,,2013-04-07 20:13:00,
2013-04-07 16:22:00,80.0,55.0,-100.00,East,91,3.0,-999.0,42,0.00,,,-99.99,379.399994,,2013-04-07 20:22:00,
2013-04-07 16:33:00,79.0,55.0,-100.00,East,98,3.0,-999.0,43,0.00,,,-99.99,243.500000,,2013-04-07 20:33:00,
2013-04-07 16:43:00,80.0,55.0,-100.00,NNE,24,2.0,-999.0,43,0.00,,,-99.99,510.100006,,2013-04-07 20:43:00,
2013-04-07 16:54:00,80.0,55.0,-100.00,NNE,24,2.0,-999.0,43,0.00,,,-99.99,510.100006,,2013-04-07 20:54:00,
2013-04-07 17:03:00,81.0,55.0,-100.00,ESE,102,2.0,-999.0,41,0.00,,,-99.99,303.700012,,2013-04-07 21:03:00,
2013-04-07 17:13:00,80.0,55.0,-100.00,ESE,105,1.0,-999.0,42,0.00,,,-99.99,165.199997,,2013-04-07 21:13:00,
2013-04-07 17:22:00,80.0,55.0,-100.00,ESE,105,1.0,-999.0,42,0.00,,,-99.99,165.199997,,2013-04-07 21:22:00,
2013-04-07 17:34:00,81.0,56.0,-100.00,ENE,72,2.0,-999.0,41,0.00,,,-99.99,548.400024,,2013-04-07 21:34:00,
2013-04-07 17:45:00,82.0,54.0,-100.00,ENE,65,2.0,-999.0,38,0.00,,,-99.99,480.600006,,2013-04-07 21:45:00,
2013-04-07 17:55:00,82.0,54.0,-100.00,ENE,65,2.0,-999.0,38,0.00,,,-99.99,480.600006,,2013-04-07 21:55:00,
2013-04-07 18:04:00,83.0,54.0,-100.00,ENE,67,3.0,-999.0,37,0.00,,,-99.99,447.299988,,2013-04-07 22:04:00,
2013-04-07 18:15:00,82.0,54.0,-100.00,ESE,102,3.0,-999.0,38,0.00,,,-99.99,253.199997,,2013-04-07 22:15:00,
2013-04-07 18:23:00,82.0,54.0,-100.00,ESE,102,3.0,-999.0,38,0.00,,,-99.99,253.199997,,2013-04-07 22:23:00,
2013-04-07 18:34:00,81.0,54.0,-100.00,ESE,109,2.0,-999.0,39,0.00,,,-99.99,280.100006,,2013-04-07 22:34:00,
2013-04-07 18:43:00,82.0,55.0,-100.00,East,90,2.0,-999.0,39,0.00,,,-99.99,257.299988,,2013-04-07 22:43:00,
2013-04-07 18:53:00,82.0,55.0,-100.00,East,90,2.0,-999.0,39,0.00,,,-99.99,257.299988,,2013-04-07 22:53:00,
2013-04-07 19:03:00,81.0,55.0,-100.00,ESE,120,2.0,-999.0,40,0.00,,,-99.99,178.000000,,2013-04-07 23:03:00,
2013-04-07 19:13:00,80.0,56.0,-100.00,ESE,117,1.0,-999.0,43,0.00,,,-99.99,64.400002,,2013-04-07 23:13:00,
2013-04-07 19:22:00,80.0,56.0,-100.00,ESE,117,1.0,-999.0,43,0.00,,,-99.99,64.400002,,2013-04-07 23:22:00,
2013-04-07 19:32:00,77.0,56.0,-100.00,ESE,105,0.0,-999.0,48,0.00,,,-99.99,38.700001,,2013-04-07 23:32:00,
2013-04-07 19:43:00,75.0,58.0,-100.00,ESE,114,1.0,-999.0,54,0.00,,,-99.99,27.799999,,2013-04-07 23:43:00,
2013-04-07 19:53:00,75.0,58.0,-100.00,ESE,114,1.0,-999.0,54,0.00,,,-99.99,27.799999,,2013-04-07 23:53:00,
2013-04-07 20:02:00,74.0,58.0,-100.00,East,94,1.0,-999.0,57,0.00,,,-99.99,14.500000,,2013-04-08 00:02:00,
2013-04-07 20:12:00,73.0,57.0,-100.00,ESE,108,1.0,-999.0,57,0.00,,,-99.99,3.300000,,2013-04-08 00:12:00,
2013-04-07 20:22:00,73.0,57.0,-100.00,ESE,108,1.0,-999.0,57,0.00,,,-99.99,3.300000,,2013-04-08 00:22:00,
2013-04-07 20:32:00,73.0,57.0,-100.00,ESE,110,1.0,-999.0,58,0.00,,,-99.99,0.200000,,2013-04-08 00:32:00,
2013-04-07 20:42:00,72.0,58.0,-100.00,East,95,1.0,-999.0,61,0.00,,,-99.99,0.000000,,2013-04-08 00:42:00,
2013-04-07 20:53:00,72.0,58.0,-100.00,East,95,1.0,-999.0,61,0.00,,,-99.99,0.000000,,2013-04-08 00:53:00,
2013-04-07 21:03:00,71.0,59.0,-100.00,East,88,1.0,-999.0,64,0.00,,,-99.99,0.000000,,2013-04-08 01:03:00,
2013-04-07 21:13:00,71.0,59.0,-100.00,ESE,110,2.0,-999.0,64,0.00,,,-99.99,0.000000,,2013-04-08 01:13:00,
2013-04-07 21:22:00,71.0,59.0,-100.00,ESE,110,2.0,-999.0,64,0.00,,,-99.99,0.000000,,2013-04-08 01:22:00,
2013-04-07 21:33:00,73.0,59.0,-100.00,ESE,121,3.0,-999.0,60,0.00,,,-99.99,0.000000,,2013-04-08 01:33:00,
2013-04-07 21:44:00,73.0,59.0,-100.00,ESE,120,3.0,-999.0,61,0.00,,,-99.99,0.000000,,2013-04-08 01:44:00,
2013-04-07 21:55:00,73.0,59.0,-100.00,ESE,120,3.0,-999.0,61,0.00,,,-99.99,0.000000,,2013-04-08 01:55:00,
2013-04-07 22:03:00,72.0,59.0,-100.00,ESE,115,3.0,-999.0,63,0.00,,,-99.99,0.000000,,2013-04-08 02:03:00,
2013-04-07 22:12:00,72.0,59.0,-100.00,SE,126,3.0,-999.0,63,0.00,,,-99.99,0.000000,,2013-04-08 02:12:00,
2013-04-07 22:22:00,72.0,59.0,-100.00,SE,126,3.0,-999.0,63,0.00,,,-99.99,0.000000,,2013-04-08 02:22:00,
2013-04-07 22:33:00,72.0,59.0,-100.00,ESE,119,2.0,-999.0,64,0.00,,,-99.99,0.000000,,2013-04-08 02:33:00,
2013-04-07 22:47:00,71.0,59.0,-100.00,ESE,123,2.0,-999.0,64,0.00,,,-99.99,0.000000,,2013-04-08 02:47:00,
2013-04-07 22:54:00,71.0,59.0,-100.00,ESE,123,2.0,-999.0,64,0.00,,,-99.99,0.000000,,2013-04-08 02:54:00,
2013-04-07 23:08:00,71.0,59.0,-100.00,ESE,122,3.0,-999.0,64,0.00,,,-99.99,0.000000,,2013-04-08 03:08:00,
2013-04-07 23:15:00,71.0,59.0,-100.00,SE,126,2.0,-999.0,65,0.00,,,-99.99,0.000000,,2013-04-08 03:15:00,
2013-04-07 23:25:00,71.0,59.0,-100.00,SE,126,2.0,-999.0,65,0.00,,,-99.99,0.000000,,2013-04-08 03:25:00,
2013-04-07 23:34:00,71.0,59.0,-100.00,ESE,116,2.0,-999.0,66,0.00,,,-99.99,0.000000,,2013-04-08 03:34:00,
2013-04-07 23:48:00,70.0,59.0,-100.00,ESE,119,2.0,-999.0,68,0.00,,,-99.99,0.000000,,2013-04-08 03:48:00,
2013-04-07 23:57:00,70.0,59.0,-100.00,ESE,119,2.0,-999.0,68,0.00,,,-99.99,0.000000,,2013-04-08 03:57:00,